Budapest Ferihegy, Hungary

9:59 AM CET on February 23, 2018 (GMT +0100)
Ferihegy

Weather History for LHBP - December, 2011

Change the Weather History Date:

Thursday, December 29, 2011

  Actual Average Record
Temperature  
Mean Temperature 35 °F -  
Max Temperature 37 °F 35 °F 46 °F (2015)
Min Temperature 33 °F 22 °F 1 °F (2010)
Degree Days  
Heating Degree Days 30    
Moisture  
Dew Point 33 °F    
Average Humidity 88    
Maximum Humidity 100    
Minimum Humidity 81    
Precipitation  
Precipitation 0.00 in - - ()
Sea Level Pressure  
Sea Level Pressure 30.20 in    
Wind  
Wind Speed 5 mph ()    
Max Wind Speed 10 mph    
Max Gust Speed -    
Visibility 4.9 miles    
Events      
Averages and records for this station are not official NWS values.
T = Trace of Precipitation, MM = Missing Value Source: Averaged Metar Reports

Daily Weather History Graph

Daily Weather History Graph

Search for Another Location

Airport or City:

Trip Planner

Search our weather history database for the weather conditions in past years. The results will help you decide how hot, cold, wet, or windy it might be!

Date:

Astronomy

Dec. 29, 2011 Rise Set
Actual Time 7:30 AM CET 3:59 PM CET
Civil Twilight 6:54 AM CET 4:35 PM CET
Nautical Twilight 6:15 AM CET 5:14 PM CET
Astronomical Twilight 5:37 AM CET 5:51 PM CET
Moon 9:54 AM CET (12/29) 9:41 PM CET (12/29)
Length of Visible Light 9h 40m
Length of Day
8h 29m
Waxing Crescent, 24% of the Moon is Illuminated
Dec 29
Waxing Crescent
Jan 1
First Quarter
Jan 9
Full
Jan 16
Last Quarter
Jan 23
New

Hourly Weather History & Observations

Time (CET) Temp. Windchill Dew Point Humidity Pressure Visibility Wind Dir Wind Speed Gust Speed Precip Events Conditions
12:00 AM 35.6 °F - 35.6 °F 100% 30.36 in 5.0 mi Variable 1.2 mph - N/A   Overcast
12:30 AM 35.6 °F 31.7 °F 35.6 °F 100% 30.33 in 3.7 mi SSE 4.6 mph - N/A   Overcast
1:00 AM 35.6 °F 32.8 °F 35.6 °F 100% 30.33 in 3.1 mi Variable 3.5 mph - N/A   Overcast
1:30 AM 35.6 °F 32.8 °F 35.6 °F 100% 30.33 in 3.1 mi Variable 3.5 mph - N/A   Overcast
2:00 AM 35.6 °F - 35.6 °F 100% 30.30 in 3.1 mi Variable 2.3 mph - N/A   Overcast
2:30 AM 35.6 °F 31.7 °F 35.6 °F 100% 30.30 in 3.7 mi SSE 4.6 mph - N/A   Overcast
3:00 AM 35.6 °F 32.8 °F 35.6 °F 100% 30.30 in 3.7 mi Variable 3.5 mph - N/A   Light Drizzle
3:30 AM 35.6 °F 32.8 °F 35.6 °F 100% 30.27 in 3.7 mi Variable 3.5 mph - N/A   Light Drizzle
4:00 AM 35.6 °F 32.8 °F 33.8 °F 93% 30.27 in 3.7 mi Variable 3.5 mph - N/A   Light Drizzle
4:30 AM 35.6 °F 31.7 °F 33.8 °F 93% 30.27 in 3.7 mi SSE 4.6 mph - N/A   Overcast
5:00 AM 35.6 °F 31.7 °F 33.8 °F 93% 30.27 in 5.0 mi SW 4.6 mph - N/A   Overcast
5:30 AM 35.6 °F 30.7 °F 32.0 °F 87% 30.27 in 5.0 mi SW 5.8 mph - N/A   Overcast
6:00 AM 35.6 °F 30.7 °F 32.0 °F 87% 30.24 in 6.2 mi SSW 5.8 mph - N/A   Overcast
6:30 AM 35.6 °F 30.7 °F 32.0 °F 87% 30.27 in 6.2 mi West 5.8 mph - N/A   Overcast
7:00 AM 35.6 °F 32.8 °F 32.0 °F 87% 30.24 in 6.2 mi Variable 3.5 mph - N/A   Overcast
7:30 AM 35.6 °F 31.7 °F 32.0 °F 87% 30.24 in 6.2 mi SW 4.6 mph - N/A   Overcast
8:00 AM 35.6 °F 31.7 °F 32.0 °F 87% 30.24 in 6.2 mi SSW 4.6 mph - N/A   Overcast
8:30 AM 35.6 °F 32.8 °F 32.0 °F 87% 30.24 in 5.0 mi Variable 3.5 mph - N/A   Overcast
9:00 AM 35.6 °F 30.7 °F 32.0 °F 87% 30.21 in 4.3 mi SW 5.8 mph - N/A   Overcast
9:30 AM 35.6 °F 30.7 °F 32.0 °F 87% 30.21 in 4.3 mi SW 5.8 mph - N/A   Overcast
10:00 AM 35.6 °F 29.9 °F 32.0 °F 87% 30.24 in 4.3 mi WSW 6.9 mph - N/A   Overcast
10:30 AM 35.6 °F 29.2 °F 32.0 °F 87% 30.24 in 4.3 mi West 8.1 mph - N/A   Overcast
11:00 AM 35.6 °F 29.9 °F 32.0 °F 87% 30.21 in 4.3 mi West 6.9 mph - N/A   Overcast
11:30 AM 37.4 °F 33.8 °F 32.0 °F 81% 30.21 in 5.0 mi West 4.6 mph - N/A   Overcast
12:00 PM 37.4 °F 33.8 °F 32.0 °F 81% 30.18 in 6.2 mi SW 4.6 mph - N/A   Mostly Cloudy
12:30 PM 37.4 °F 33.8 °F 32.0 °F 81% 30.18 in 6.2 mi WSW 4.6 mph - N/A   Mostly Cloudy
1:00 PM 37.4 °F 33.8 °F 32.0 °F 81% 30.15 in 6.2 mi SW 4.6 mph - N/A   Mostly Cloudy
1:30 PM 37.4 °F 32.1 °F 32.0 °F 81% 30.15 in 6.2 mi SW 6.9 mph - N/A   Mostly Cloudy
2:00 PM 37.4 °F 32.1 °F 32.0 °F 81% 30.15 in 6.2 mi SW 6.9 mph - N/A   Mostly Cloudy
2:30 PM 37.4 °F 32.1 °F 32.0 °F 81% 30.15 in 6.2 mi SW 6.9 mph - N/A   Mostly Cloudy
3:00 PM 37.4 °F 31.4 °F 32.0 °F 81% 30.15 in 6.2 mi SW 8.1 mph - N/A   Mostly Cloudy
3:30 PM 37.4 °F 31.4 °F 32.0 °F 81% 30.15 in 6.2 mi SW 8.1 mph - N/A   Mostly Cloudy
4:00 PM 37.4 °F 32.1 °F 32.0 °F 81% 30.12 in 4.3 mi SW 6.9 mph - N/A   Overcast
4:30 PM 35.6 °F 30.7 °F 32.0 °F 87% 30.12 in 4.3 mi SW 5.8 mph - N/A   Overcast
5:00 PM 35.6 °F 30.7 °F 32.0 °F 87% 30.12 in 4.3 mi SW 5.8 mph - N/A   Mostly Cloudy
5:30 PM 35.6 °F 29.9 °F 32.0 °F 87% 30.12 in 3.7 mi WSW 6.9 mph - N/A   Mostly Cloudy
6:00 PM 37.4 °F 30.8 °F 32.0 °F 81% 30.12 in 3.7 mi West 9.2 mph - N/A   Mostly Cloudy
6:30 PM 37.4 °F 31.4 °F 32.0 °F 81% 30.12 in 3.7 mi West 8.1 mph - N/A   Unknown
7:00 PM 37.4 °F 31.4 °F 32.0 °F 81% 30.12 in - West 8.1 mph - N/A   Clear
8:00 PM 35.6 °F 29.2 °F 32.0 °F 87% 30.12 in - WNW 8.1 mph - N/A   Clear
8:30 PM 35.6 °F 28.6 °F 32.0 °F 87% 30.12 in 6.2 mi WNW 9.2 mph - N/A   Mostly Cloudy
9:00 PM 35.6 °F 28.0 °F 32.0 °F 87% 30.12 in - WNW 10.4 mph - N/A   Clear
9:30 PM 35.6 °F 28.0 °F 32.0 °F 87% 30.09 in - WNW 10.4 mph - N/A   Clear
10:00 PM 35.6 °F 28.6 °F 32.0 °F 87% 30.09 in - West 9.2 mph - N/A   Clear
10:30 PM 35.6 °F 29.2 °F 32.0 °F 87% 30.09 in 6.2 mi WNW 8.1 mph - N/A   Mostly Cloudy
11:00 PM 33.8 °F 28.6 °F 32.0 °F 93% 30.09 in 6.2 mi WSW 5.8 mph - N/A   Mostly Cloudy
11:30 PM 33.8 °F 29.6 °F 32.0 °F 93% 30.06 in - SW 4.6 mph - N/A   Clear